[[{"header":{"parameterUnit":"m.s-1","parameterCategory":1,"la1":30.2991,"la2":30.254,"lo1":-89.0895,"lo2":-89.0444,"dy":0.0017,"dx":0.0017,"nx":28,"ny":28,"refTime":"2024-09-25T21:00:00:Z","depth":0,"parameterNumber":2,"parameterNumberName":"U-component_of_WINDS"},"data":[0,0,0,0,0,0,0,0,0,0,0,0,0,0,0,0,0,0,0,0,0,0,0,0,0,0,0,0,0,0,0,0,0,0,0,0,0,0,0,0,0,0,0,0,0,0,0,0,0,0,0,0,0,0,0,0,0,0,-2.278,-2.2781,0,-2.287,-2.2871,-2.2872,-2.286,-2.2859,-2.2857,-2.2856,-2.295,-2.2954,-2.2957,0,0,0,0,0,0,0,0,0,0,0,0,0,-2.2598,-2.2602,-2.278,-2.2781,-2.2782,-2.287,-2.2871,-2.2873,-2.2861,-2.2859,-2.2857,-2.2855,-2.2949,-2.2953,-2.2958,0,0,0,0,0,0,0,0,0,0,0,0,0,-2.2682,-2.2603,-2.278,-2.2787,-2.2788,-2.287,-2.2871,-2.2873,-2.2861,-2.2859,-2.2857,-2.2855,-2.2947,-2.2953,-2.2958,-2.3039,0,0,-2.2976,-2.2979,0,0,0,0,0,0,0,0,-2.2677,-2.2688,-2.2785,-2.2787,-2.2788,-2.2852,-2.2842,-2.2929,-2.2862,-2.2834,-2.2856,-2.2853,-2.2919,-2.2927,-2.2949,-2.3043,-2.3047,-2.2977,-2.298,-2.2983,-2.2984,0,0,0,0,0,0,0,-2.2671,-2.2685,-2.2816,-2.2786,-2.2788,-2.2786,-2.2795,-2.2858,-2.2888,-2.2836,-2.2835,-2.2846,-2.292,-2.2943,-2.2951,-2.3049,-2.2977,-2.2982,-2.2985,-2.2988,-2.3214,-2.3217,0,0,0,0,0,0,-2.2664,-2.268,-2.2813,-2.2818,-2.2726,-2.2791,-2.2801,-2.2834,-2.2887,-2.2893,-2.2848,-2.2845,-2.2935,-2.2944,-2.2954,-2.3053,-2.2983,-2.2988,-2.2992,-2.3212,-2.3215,-2.3218,0,0,0,0,0,0,-2.266,-2.2676,-2.2809,-2.2749,-2.2766,-2.2796,-2.2833,-2.2837,-2.286,-2.2896,-2.2901,-2.2866,-2.2933,-2.2946,-2.3018,-2.3056,-2.2991,-2.2996,-2.3209,-2.3213,-2.3216,-2.325,0,0,0,0,0,0,-2.2655,-2.2674,-2.2705,-2.275,-2.2769,-2.2871,-2.2835,-2.284,-2.287,-2.2868,-2.2915,-2.2921,-2.2932,-2.3009,-2.3024,-2.3063,-2.3001,-2.3206,-2.3211,-2.3215,-2.3245,-2.3254,-2.3262,0,0,0,0,0,-2.2648,-2.2711,-2.2707,-2.2723,-2.2808,-2.2874,-2.2885,-2.2896,-2.2873,-2.2905,-2.2928,-2.2919,-2.3049,-2.3017,-2.3033,-2.3074,-2.3203,-2.3209,-2.3215,-2.3242,-2.3252,-2.3261,0,0,0,0,0,0,-2.267,-2.2717,-2.2713,-2.2792,-2.2829,-2.2871,-2.2911,-2.2907,-2.2952,-2.2947,-2.296,-2.2971,-2.3044,-2.3066,-2.3029,-2.3155,-2.3123,-2.3132,-2.3138,-2.3149,-2.3157,-2.315,-2.3006,0,0,0,0,0,-2.2684,-2.2733,-2.2772,-2.2838,-2.2856,-2.2881,-2.291,-2.2915,-2.2954,-2.297,-2.2998,-2.3036,-2.3086,-2.3118,-2.3166,-2.3248,-2.3259,-2.3284,-2.3292,-2.3299,-2.3307,-2.3353,-2.3365,-2.3236,-2.3236,-2.3236,0,0,-2.2714,-2.2746,-2.2776,-2.2843,-2.2872,-2.2923,-2.2894,-2.2949,-2.2987,-2.2978,-2.3048,-2.307,-2.3114,-2.3191,-2.3227,-2.3212,-2.3345,-2.3306,-2.3311,-2.3316,-2.336,-2.3372,-2.3383,-2.324,-2.3239,-2.3239,0,0,-2.2795,-2.2823,-2.2882,-2.2911,-2.2956,-2.2971,-2.2985,-2.3029,-2.3043,-2.3113,-2.3108,-2.3153,-2.3238,-2.3269,-2.3296,-2.3388,-2.3382,-2.3403,-2.3446,-2.349,-2.35,-2.3509,-2.3543,-2.3555,-2.3411,-2.3411,-2.3411,0,-2.2826,-2.2902,-2.2912,-2.2968,-2.2998,-2.2992,-2.3052,-2.308,-2.3138,-2.3159,-2.3141,-2.3247,-2.3276,-2.3361,-2.3383,-2.3405,-2.3422,-2.3398,-2.3498,-2.3507,-2.3516,-2.3548,-2.356,-2.3413,-2.3413,-2.3412,-2.3412,0,-2.2939,-2.2992,-2.3034,-2.309,-2.3124,-2.3181,-2.32,-2.3234,-2.3237,-2.3254,-2.3326,-2.336,-2.3414,-2.3435,-2.3438,-2.352,-2.351,-2.3495,-2.3463,-2.353,-2.3561,-2.3573,-2.3416,-2.3415,-2.3415,-2.3414,0,0,-2.3038,-2.3097,-2.3113,-2.3138,-2.3186,-2.3227,-2.3284,-2.3337,-2.3366,-2.3406,-2.3454,-2.3526,-2.3512,-2.3543,-2.3549,-2.3588,-2.3659,-2.3569,-2.357,-2.3585,-2.3753,-2.3765,-2.3779,-2.3655,-2.3658,-2.366,-2.375,0,-2.3123,-2.3224,-2.3234,-2.3325,-2.3374,-2.3368,-2.3418,-2.3453,-2.3471,-2.3515,-2.3535,-2.3586,-2.3563,-2.3582,-2.362,-2.3643,-2.3694,-2.3636,-2.3702,-2.3704,-2.3692,-2.3795,-2.3807,-2.3891,-2.3762,-2.3764,-2.3765,0,-2.3237,-2.328,-2.3375,-2.3416,-2.3437,-2.3482,-2.3531,-2.3573,-2.3613,-2.3623,-2.3657,-2.3658,-2.3718,-2.3683,-2.3765,-2.3725,-2.3752,-2.3768,-2.3771,-2.3779,-2.3739,-2.3806,-2.3918,-2.3931,-2.3784,-2.3782,-2.3781,0,-2.33,-2.3381,-2.3449,-2.347,-2.352,-2.3552,-2.3574,-2.3611,-2.3642,-2.3685,-2.3706,-2.3755,-2.3782,-2.3821,-2.3835,-2.3808,-2.3917,-2.3883,-2.3928,-2.3927,-2.3952,-2.395,-2.4071,-2.3968,-2.3967,-2.3967,-2.3967,0,-2.3396,-2.3454,-2.3478,-2.352,-2.3585,-2.3596,-2.3661,-2.3682,-2.3715,-2.3761,-2.3759,-2.3802,-2.3818,-2.3864,-2.3876,-2.3942,-2.3954,-2.3965,-2.3967,-2.3966,-2.3964,-2.3984,-2.3979,-2.397,-2.397,-2.3969,-2.3969,0,-2.3478,-2.3496,-2.3569,-2.361,-2.3622,-2.3668,-2.3703,-2.3744,-2.376,-2.3818,-2.3832,-2.3859,-2.3913,-2.3931,-2.3996,-2.4004,-2.4082,-2.4079,-2.4068,-2.4069,-2.4113,-2.4109,-2.4251,-2.4271,-2.4154,-2.4155,-2.4156,0,-2.3538,-2.3583,-2.3628,-2.3659,-2.3682,-2.3731,-2.3762,-2.3775,-2.3808,-2.3856,-2.3891,-2.3944,-2.3988,-2.4074,-2.4099,-2.4149,-2.4148,-2.4194,-2.4156,-2.4152,-2.415,-2.4147,-2.4152,-2.4202,-2.4203,-2.4204,-2.4205,0,-2.3643,-2.365,-2.3695,-2.3744,-2.3781,-2.382,-2.3858,-2.3883,-2.3901,-2.3938,-2.3993,-2.4026,-2.4093,-2.4146,-2.4197,-2.422,-2.4216,-2.4217,-2.423,-2.4229,-2.4222,-2.4227,-2.4089,-2.4214,-2.4213,-2.4212,-2.4212,-2.4212,-2.3717,-2.3756,-2.3795,-2.3845,-2.3875,-2.391,-2.395,-2.3971,-2.4017,-2.4072,-2.4076,-2.4136,-2.4174,-2.4242,-2.4267,-2.4314,-2.4301,-2.432,-2.4325,-2.433,-2.4334,-2.4213,-2.4323,-2.4323,-2.4323,-2.4323,-2.4323,0,-2.3822,-2.3847,-2.3893,-2.3945,-2.3985,-2.3977,-2.4018,-2.4052,-2.4104,-2.414,-2.4183,-2.4246,-2.4297,-2.4326,-2.4378,-2.4409,-2.4409,-2.4423,-2.4421,-2.4427,-2.4342,-2.4326,-2.4422,-2.4422,-2.4422,-2.4422,-2.4422,-2.4422,-2.3882,-2.3949,-2.396,-2.4042,-2.4066,-2.4123,-2.4148,-2.418,-2.4209,-2.4279,-2.4322,-2.434,-2.4374,-2.4427,-2.4474,-2.4481,-2.4501,-2.4516,-2.4522,-2.4443,-2.4432,-2.4423,-2.4408,-2.452,-2.452,-2.4603,-2.4604,-2.4604]},{"header":{"parameterUnit":"m.s-1","parameterCategory":1,"la1":30.2991,"la2":30.254,"lo1":-89.0895,"lo2":-89.0444,"dy":0.0017,"dx":0.0017,"nx":28,"ny":28,"refTime":"2024-09-25T21:00:00:Z","depth":0,"parameterNumber":3,"parameterNumberName":"V-component_of_WINDS"},"data":[0,0,0,0,0,0,0,0,0,0,0,0,0,0,0,0,0,0,0,0,0,0,0,0,0,0,0,0,0,0,0,0,0,0,0,0,0,0,0,0,0,0,0,0,0,0,0,0,0,0,0,0,0,0,0,0,0,0,-8.1701,-8.1701,0,-8.1748,-8.1749,-8.1749,-8.1666,-8.1663,-8.166,-8.1657,-8.17,-8.1704,-8.1708,0,0,0,0,0,0,0,0,0,0,0,0,0,-8.1534,-8.1537,-8.1701,-8.1701,-8.1702,-8.1748,-8.1749,-8.1749,-8.1666,-8.1663,-8.1659,-8.1656,-8.1699,-8.1703,-8.1708,0,0,0,0,0,0,0,0,0,0,0,0,0,-8.1596,-8.1538,-8.1701,-8.1666,-8.1664,-8.1748,-8.1749,-8.1749,-8.1667,-8.1663,-8.1659,-8.1655,-8.1698,-8.1703,-8.1709,-8.1827,0,0,-8.1726,-8.1728,0,0,0,0,0,0,0,0,-8.1593,-8.1602,-8.1671,-8.1669,-8.1666,-8.1697,-8.1705,-8.1775,-8.1668,-8.1665,-8.1657,-8.1653,-8.1702,-8.1707,-8.1725,-8.1829,-8.1831,-8.1726,-8.173,-8.1732,-8.1734,0,0,0,0,0,0,0,-8.1588,-8.16,-8.1719,-8.1672,-8.1669,-8.1647,-8.1651,-8.1718,-8.1706,-8.1665,-8.1659,-8.1666,-8.17,-8.172,-8.1725,-8.1831,-8.1726,-8.1731,-8.1734,-8.1737,-8.2036,-8.2041,0,0,0,0,0,0,-8.1589,-8.1597,-8.1718,-8.1721,-8.1618,-8.1653,-8.1658,-8.1691,-8.1706,-8.1704,-8.167,-8.1662,-8.1712,-8.1719,-8.1726,-8.1868,-8.1732,-8.1737,-8.174,-8.2032,-8.2037,-8.2042,0,0,0,0,0,0,-8.1586,-8.1601,-8.1716,-8.1657,-8.167,-8.1661,-8.1698,-8.1694,-8.1714,-8.1709,-8.1706,-8.1693,-8.1709,-8.1719,-8.1803,-8.1868,-8.174,-8.1745,-8.2026,-8.2034,-8.204,-8.215,0,0,0,0,0,0,-8.1581,-8.16,-8.1646,-8.1659,-8.1674,-8.1793,-8.1702,-8.1698,-8.1724,-8.1715,-8.173,-8.1728,-8.1707,-8.1795,-8.1809,-8.1873,-8.1749,-8.2021,-8.203,-8.2038,-8.214,-8.216,-8.2176,0,0,0,0,0,-8.1576,-8.1673,-8.1649,-8.1664,-8.1731,-8.1797,-8.1805,-8.1781,-8.173,-8.1775,-8.1773,-8.1728,-8.1859,-8.1805,-8.1819,-8.1886,-8.2016,-8.2027,-8.2037,-8.2132,-8.2156,-8.2176,0,0,0,0,0,0,-8.1665,-8.1674,-8.1647,-8.1752,-8.1775,-8.1783,-8.184,-8.1806,-8.1842,-8.1831,-8.1797,-8.1801,-8.1893,-8.1897,-8.1838,-8.2002,-8.1929,-8.1942,-8.1996,-8.2019,-8.2036,-8.2033,-8.1754,0,0,0,0,0,-8.1697,-8.1752,-8.1756,-8.1848,-8.1862,-8.1849,-8.1877,-8.1856,-8.1878,-8.1886,-8.1889,-8.1911,-8.1957,-8.1988,-8.2029,-8.214,-8.2143,-8.2194,-8.2212,-8.2226,-8.2239,-8.2299,-8.2322,-8.2076,-8.2076,-8.2076,0,0,-8.1764,-8.1775,-8.1812,-8.1867,-8.1882,-8.1939,-8.1858,-8.192,-8.1962,-8.1895,-8.1976,-8.198,-8.2001,-8.21,-8.2144,-8.2107,-8.2307,-8.2239,-8.2251,-8.2256,-8.2312,-8.2336,-8.2357,-8.2083,-8.2082,-8.2081,0,0,-8.1914,-8.1928,-8.2008,-8.2026,-8.2051,-8.2043,-8.2062,-8.2076,-8.2077,-8.2158,-8.211,-8.2158,-8.2238,-8.2256,-8.2275,-8.2435,-8.2396,-8.245,-8.2543,-8.2603,-8.2622,-8.2639,-8.2698,-8.2719,-8.2462,-8.2462,-8.2462,0,-8.1993,-8.2078,-8.2052,-8.212,-8.2146,-8.2091,-8.2171,-8.2188,-8.2225,-8.2244,-8.2202,-8.2303,-8.2313,-8.2417,-8.2456,-8.2473,-8.2494,-8.2448,-8.2622,-8.2639,-8.2654,-8.271,-8.2731,-8.2469,-8.2468,-8.2467,-8.2467,0,-8.2175,-8.2235,-8.2295,-8.2336,-8.2368,-8.2442,-8.2426,-8.2462,-8.2438,-8.2434,-8.2518,-8.2529,-8.2574,-8.2596,-8.2573,-8.2697,-8.2674,-8.2628,-8.2553,-8.2685,-8.2736,-8.2757,-8.2478,-8.2476,-8.2474,-8.2472,0,0,-8.2381,-8.2409,-8.2432,-8.2451,-8.2476,-8.2521,-8.2592,-8.2637,-8.267,-8.2697,-8.2755,-8.2825,-8.2784,-8.2806,-8.2784,-8.2837,-8.2965,-8.2784,-8.2784,-8.2819,-8.3104,-8.314,-8.3165,-8.2939,-8.2943,-8.2946,-8.3103,0,-8.2532,-8.2657,-8.2637,-8.2757,-8.2813,-8.2763,-8.2824,-8.2846,-8.2844,-8.289,-8.2886,-8.2938,-8.2878,-8.2892,-8.2941,-8.2939,-8.3022,-8.2927,-8.2993,-8.2995,-8.2991,-8.3192,-8.3229,-8.3377,-8.3123,-8.3126,-8.3129,0,-8.2725,-8.2763,-8.2891,-8.291,-8.2932,-8.2988,-8.303,-8.3074,-8.3098,-8.3092,-8.3119,-8.3089,-8.3158,-8.3083,-8.3179,-8.3115,-8.314,-8.3144,-8.3149,-8.3155,-8.3071,-8.3204,-8.3423,-8.3446,-8.316,-8.3157,-8.3155,0,-8.2865,-8.2948,-8.3036,-8.3053,-8.3077,-8.3118,-8.3129,-8.3149,-8.3178,-8.3214,-8.3233,-8.3275,-8.3298,-8.3331,-8.3313,-8.3259,-8.3413,-8.3335,-8.341,-8.3411,-8.3445,-8.3443,-8.3673,-8.346,-8.346,-8.3459,-8.3459,0,-8.3036,-8.3116,-8.31,-8.3154,-8.3242,-8.3217,-8.3305,-8.3309,-8.3328,-8.3381,-8.3339,-8.3389,-8.3361,-8.3409,-8.3394,-8.3477,-8.3487,-8.3485,-8.348,-8.349,-8.349,-8.3506,-8.3496,-8.3465,-8.3464,-8.3463,-8.3462,0,-8.3208,-8.32,-8.3292,-8.3309,-8.3315,-8.3379,-8.3392,-8.3442,-8.3438,-8.3506,-8.352,-8.3513,-8.3568,-8.3552,-8.361,-8.3601,-8.3706,-8.3687,-8.3699,-8.3695,-8.3772,-8.3766,-8.4021,-8.4053,-8.3818,-8.3821,-8.3822,0,-8.3319,-8.338,-8.3404,-8.3438,-8.3454,-8.3508,-8.3539,-8.3517,-8.3551,-8.3584,-8.363,-8.3682,-8.3722,-8.3812,-8.3811,-8.3855,-8.3838,-8.3925,-8.3844,-8.3853,-8.3841,-8.3839,-8.3845,-8.3941,-8.3943,-8.3946,-8.3947,0,-8.3516,-8.351,-8.3558,-8.3605,-8.3644,-8.368,-8.3711,-8.374,-8.3721,-8.3761,-8.3818,-8.3849,-8.3911,-8.3963,-8.4004,-8.4014,-8.3978,-8.3973,-8.3993,-8.4003,-8.4009,-8.4009,-8.3744,-8.3967,-8.3965,-8.3964,-8.3963,-8.3962,-8.3661,-8.3714,-8.3741,-8.3796,-8.3818,-8.3849,-8.3897,-8.3901,-8.3949,-8.3999,-8.3982,-8.4048,-8.4071,-8.4123,-8.4139,-8.4189,-8.4156,-8.4184,-8.4192,-8.42,-8.421,-8.4,-8.4196,-8.4195,-8.4195,-8.4194,-8.4194,0,-8.3858,-8.3873,-8.3925,-8.3972,-8.4015,-8.398,-8.4013,-8.4051,-8.4111,-8.4136,-8.4178,-8.4244,-8.4295,-8.4299,-8.4346,-8.4386,-8.437,-8.4399,-8.4396,-8.4399,-8.4236,-8.4215,-8.4411,-8.441,-8.441,-8.441,-8.441,-8.441,-8.3966,-8.4055,-8.4052,-8.4151,-8.4164,-8.4231,-8.4253,-8.4281,-8.4302,-8.4379,-8.4422,-8.4425,-8.4442,-8.4491,-8.4536,-8.4535,-8.4555,-8.4591,-8.4584,-8.4432,-8.441,-8.439,-8.437,-8.4595,-8.4595,-8.4743,-8.4745,-8.4746]}]]